Waterloo, IA

8:14 AM CDT on July 21, 2017 (GMT -0500)
Waterloo Municipal

Weather History for KALO - July, 2013

Change the Weather History Date:

Monday, July 15, 2013

  Actual Average Record
Temperature  
Mean Temperature 77 °F 74 °F  
Max Temperature 90 °F 85 °F 106 °F (1936)
Min Temperature 63 °F 63 °F 44 °F (1967)
Degree Days  
Heating Degree Days 0 0  
Month to date heating degree days 0 0  
Since 1 June heating degree days 38 26  
Since 1 July heating degree days 0 0  
Cooling Degree Days 12 9  
Month to date cooling degree days 137 135  
Year to date cooling degree days 358 368  
Since 1 June cooling degree days 305 312  
Growing Degree Days 26 (Base 50)    
Moisture  
Dew Point 68 °F    
Average Humidity 73    
Maximum Humidity 93    
Minimum Humidity 52    
Precipitation  
Precipitation 0.02 in 0.17 in 0.77 in (1952)
Month to date precipitation 0.30 2.52  
Year to date precipitation 28.56 19.62  
Snow  
Snow 0.00 in 0.00 in - ()
Month to date snowfall 0.0 0.0  
Since 1 June snowfall 0.0 0.0  
Since 1 July snowfall 0.0 0.0  
Snow Depth 0.00 in    
Sea Level Pressure  
Sea Level Pressure 30.20 in    
Wind  
Wind Speed 5 mph (SE)    
Max Wind Speed 20 mph    
Max Gust Speed 23 mph    
Visibility 9 miles    
Events Rain    
T = Trace of Precipitation, MM = Missing Value Source: NWS Daily Summary

Daily Weather History Graph

Daily Weather History Graph

Search for Another Location

Airport or City:

Trip Planner

Search our weather history database for the weather conditions in past years. The results will help you decide how hot, cold, wet, or windy it might be!

Date:

Astronomy

Jul. 15, 2013 Rise Set
Actual Time 5:45 AM CDT 8:45 PM CDT
Civil Twilight 5:12 AM CDT 9:18 PM CDT
Nautical Twilight 4:29 AM CDT 10:01 PM CDT
Astronomical Twilight 3:38 AM CDT 10:51 PM CDT
Moon 1:16 PM CDT (7/15) No Moon Set
Length of Visible Light 16h 06m
Length of Day
14h 59m
Waxing Crescent, 45% of the Moon is Illuminated
Jul 15
Waxing Crescent
Jul 15
First Quarter
Jul 22
Full
Jul 29
Last Quarter
Aug 6
New

Hourly Weather History & Observations

Time (CDT) Temp. Heat Index Dew Point Humidity Pressure Visibility Wind Dir Wind Speed Gust Speed Precip Events Conditions
12:54 AM 66.0 °F - 62.1 °F 87% 30.20 in 10.0 mi Calm Calm - N/A   Clear
1:54 AM 64.9 °F - 61.0 °F 87% 30.20 in 10.0 mi Calm Calm - N/A   Clear
2:54 AM 64.0 °F - 61.0 °F 90% 30.20 in 10.0 mi Calm Calm - N/A   Clear
3:54 AM 64.9 °F - 63.0 °F 93% 30.20 in 9.0 mi ENE 3.5 mph - N/A   Clear
4:54 AM 64.0 °F - 62.1 °F 93% 30.20 in 7.0 mi Calm Calm - N/A   Clear
5:54 AM 64.0 °F - 62.1 °F 93% 30.21 in 5.0 mi Calm Calm - N/A   Clear
6:54 AM 68.0 °F - 64.9 °F 90% 30.22 in 5.0 mi Calm Calm - N/A   Clear
7:54 AM 72.0 °F - 68.0 °F 87% 30.24 in 8.0 mi East 3.5 mph - N/A   Partly Cloudy
8:54 AM 75.0 °F - 70.0 °F 84% 30.24 in 10.0 mi ESE 3.5 mph - N/A   Clear
9:54 AM 81.0 °F 84.9 °F 71.1 °F 72% 30.24 in 10.0 mi East 3.5 mph - N/A   Clear
10:54 AM 84.0 °F 87.0 °F 68.0 °F 58% 30.23 in 10.0 mi Variable 5.8 mph - N/A   Partly Cloudy
11:54 AM 86.0 °F 90.1 °F 69.1 °F 57% 30.23 in 10.0 mi SSE 8.1 mph - N/A   Mostly Cloudy
12:54 PM 87.1 °F 90.6 °F 68.0 °F 53% 30.22 in 10.0 mi South 9.2 mph - N/A   Scattered Clouds
1:54 PM 88.0 °F 92.9 °F 70.0 °F 55% 30.21 in 10.0 mi Variable 6.9 mph - N/A   Partly Cloudy
2:54 PM 89.1 °F 94.1 °F 70.0 °F 53% 30.19 in 10.0 mi SSE 8.1 mph - N/A   Scattered Clouds
3:54 PM 86.0 °F 90.1 °F 69.1 °F 57% 30.18 in 10.0 mi SE 9.2 mph - N/A   Overcast
4:54 PM 87.1 °F 92.0 °F 70.0 °F 57% 30.17 in 10.0 mi SSE 10.4 mph - N/A   Partly Cloudy
5:54 PM 81.0 °F 85.2 °F 72.0 °F 74% 30.17 in 10.0 mi ESE 13.8 mph 23.0 mph 0.00 in Rain Light Rain
6:54 PM 82.9 °F 88.8 °F 73.0 °F 72% 30.17 in 10.0 mi Calm Calm - 0.02 in   Clear
7:54 PM 82.9 °F 90.8 °F 75.9 °F 79% 30.16 in 10.0 mi Calm Calm - N/A   Partly Cloudy
8:54 PM 80.1 °F 85.1 °F 75.0 °F 85% 30.16 in 10.0 mi East 3.5 mph - N/A   Clear
9:54 PM 77.0 °F - 73.0 °F 88% 30.18 in 10.0 mi East 3.5 mph - N/A   Clear
10:54 PM 78.1 °F - 73.0 °F 84% 30.19 in 10.0 mi SE 5.8 mph - N/A   Clear
11:54 PM 78.1 °F - 73.0 °F 84% 30.20 in 10.0 mi SSE 5.8 mph - N/A   Clear